Regional Weather Roundup
Issued by NWS

Home | Current Version | Previous Version | Graphics & Text | Print | Product List | Glossary On
Versions: 1 2 3 4 5 6 7 8 9 10 11 12 13 14 15 16 17 18 19 20 21 22 23 24 25 26 27 28 29 30 31 32 33 34 35 36 37 38 39 40 41 42 43 44 45 46 47 48 49 50
000
ASUS43 KDMX 190907
RWRIA

WEATHER ROUNDUP FOR IOWA
NATIONAL WEATHER SERVICE DES MOINES IA
400 AM CDT SUN APR 19 2015

NOTE: "FAIR" INDICATES FEW OR NO CLOUDS BELOW 12,000 FEET WITH NO
SIGNIFICANT WEATHER AND/OR OBSTRUCTIONS TO VISIBILITY.

* - THESE STATIONS ARE NOT NWS STATIONS...THUS NOT UNDER NWS
QUALITY CONTROL.  THEY ALSO DO NOT REPORT WEATHER SUCH
AS PRECIPITATION OR FOG.

IAZ001>003-012>014-020>022-031>034-043>046-191000-
   NORTHWEST IOWA

CITY           SKY/WX    TMP DP  RH WIND       PRES   REMARKS
CARROLL *      FOG       55  55 100 CALM      29.75F VSB 1/2
CHEROKEE *     LGT RAIN  54  54 100 S5        29.75S
DENISON *      CLOUDY    55  55 100 CALM      29.73F FOG
LE MARS *      CLOUDY    55  55 100 SW3       29.76R
ORANGE CITY *  CLOUDY   N/A N/A N/A S3        29.75S FOG
SHELDON *      CLOUDY    54  54 100 S5        29.73F FOG
SIOUX CITY     FOG       54  53  97 SE6       29.73F VSB 1/4
SPENCER        FOG       53  52  96 S3        29.75F VSB 1/2
STORM LAKE *   MOCLDY    54  54 100 S6        29.77S
$$

IAZ055>058-069>071-079>083-090>094-191000-
   SOUTHWEST IOWA

CITY           SKY/WX    TMP DP  RH WIND       PRES   REMARKS
ATLANTIC *     CLOUDY    55  55 100 CALM      29.76F
AUDUBON *      CLOUDY    57  54  88 SW6       29.77F FOG
CLARINDA *     FOG       54  54 100 E3        29.77S VSB 0
COUNCIL BLFS * FOG       55  55 100 SE6       29.74F VSB<1/4
CRESTON *      CLOUDY    57  57 100 S3        29.77F FOG
HARLAN  *      FOG       55  55 100 SW5       29.79F VSB 0
LAMONI         FOG       59  58  96 SW3       29.75F VSB 1
RED OAK *      CLOUDY    57  57 100 CALM      29.75F FOG
SHENANDOAH *   FOG       57  57 100 E5        29.76S VSB 0
$$

IAZ047>049-059>061-072>074-084-191000-
   CENTRAL IOWA

CITY           SKY/WX    TMP DP  RH WIND       PRES   REMARKS
AMES           CLOUDY    56  54  93 S7        29.77F
ANKENY *       CLOUDY    57  57 100 CALM      29.77F
CHARITON *     LGT RAIN  57  57 100 SE5       29.77S
DES MOINES     CLOUDY    58  56  93 SE3       29.77F
GRINNELL*      CLOUDY    57  55  94 CALM      29.79F
KNOXVILLE *    CLOUDY    57  55  94 E3        29.77S
MARSHALLTOWN   CLOUDY    56  55  97 E6        29.78F FOG
PELLA *        CLOUDY    57  57 100 CALM      29.79F FOG
PERRY *        CLOUDY    57  57 100 S8        29.76F FOG
$$

IAZ004>006-015-016-023>025-035-036-191000-
   NORTH CENTRAL IOWA

CITY           SKY/WX    TMP DP  RH WIND       PRES   REMARKS
ALGONA *       CLOUDY    55  55 100 S8        29.76F FOG
CLARION *      CLOUDY    57  57 100 SE16      29.76F
ESTHERVILLE    FOG       54  54 100 S6        29.74F VSB 3/4
FORT DODGE *   CLOUDY    55  54  94 SE3       29.77F
MASON CITY     CLOUDY    53 N/A N/A SE15      29.79F
FOREST CITY *  CLOUDY    52  52 100 SE17      29.77S
IOWA FALLS *   CLOUDY    55  52  88 SE8       29.79S
$$

IAZ007>011-017>019-026>030-037>042-050>054-066-191000-
   NORTHEAST IOWA

CITY           SKY/WX    TMP DP  RH WIND       PRES   REMARKS
CEDAR RAPIDS   CLOUDY    52  45  77 E7        29.79F
CHARLES CITY * CLOUDY    52  50  93 SE14      29.81F
CLINTON *      MOCLDY    54  39  58 E13       29.85F
DECORAH *      MOCLDY    54  37  54 SE9G16    29.81S
DUBUQUE        CLOUDY    53  38  56 SE7       29.83F
MONTICELLO *   PTCLDY    54  39  58 SE7G14    29.82S
OELWEIN *      CLOUDY    54  43  66 S12       29.85R
WATERLOO       LGT RAIN  52  49  89 SE12      29.81F
$$

IAZ064-065-067-068-078-191000-
   EAST CENTRAL IOWA

CITY           SKY/WX    TMP DP  RH WIND       PRES   REMARKS
DAVENPORT      MOCLDY    52  37  56 E9        29.82F
IOWA CITY      CLOUDY    56  47  71 E7        29.80F
MT. PLEASANT * CLOUDY    59  57  94 SW9       29.80R
MUSCATINE *    CLOUDY    55  48  76 CALM      29.80F
QUAD CITIES    PTCLDY    52  38  58 CALM      29.82F
$$

IAZ062-063-075>077-085>089-095>099-191000-
   SOUTHEAST IOWA

CITY           SKY/WX    TMP DP  RH WIND       PRES   REMARKS
BURLINGTON     PTCLDY    59  56  89 CALM      29.78F
FAIRFIELD *    CLOUDY    61  54  77 S9        29.78S
FORT MADISON * PTCLDY    57  57 100 CALM      29.79F FOG
KEOKUK *       CLOUDY    57  57 100 NW3       29.78S
OSKALOOSA *    MOCLDY    55  54  94 CALM      29.78S
CENTERVILLE *  MOCLDY    55  55 100 SE5       29.78F
OTTUMWA        CLOUDY    56  56 100 W3        29.78R
WASHINGTON *   CLOUDY    57  57 100 E9        29.78F
$$

ABBREVIATIONS USED IN REMARKS
   TC - TEMPERATURES IN CELSIUS
  WCI - WIND CHILL INDEX
   HX - HEAT INDEX
  VSB - VISIBILITY
$$



USA.gov is the U.S. government's official web portal to all federal, state and local government web resources and services.